This is the latest recevied weather packets stored in our database for station/object DG9MHV-10. If no packets are shown the sender has not sent any weather packets the latest 10 day(s).
| Time | Temp. | Humidity | Pressure | Rain* | Wind** | Luminosity | Snow |
|---|---|---|---|---|---|---|---|
| 1777441274 | 8.33° C | 100% | 1020.3 hPa | - | - | - | - |
| 1777440374 | 7.78° C | 100% | 1020.1 hPa | - | - | - | - |
| 1777439474 | 7.78° C | 100% | 1020 hPa | - | - | - | - |
| 1777438574 | 7.22° C | 100% | 1019.8 hPa | - | - | - | - |
| 1777437674 | 7.22° C | 100% | 1019.7 hPa | - | - | - | - |
| 1777436774 | 7.78° C | 100% | 1019.5 hPa | - | - | - | - |
| 1777435873 | 7.78° C | 100% | 1019.4 hPa | - | - | - | - |
| 1777434973 | 7.78° C | 100% | 1019.2 hPa | - | - | - | - |
| 1777434073 | 7.78° C | 100% | 1019.1 hPa | - | - | - | - |
| 1777433173 | 7.78° C | 100% | 1019.1 hPa | - | - | - | - |
| 1777432273 | 8.33° C | 100% | 1019.1 hPa | - | - | - | - |
| 1777431373 | 8.33° C | 100% | 1019 hPa | - | - | - | - |
| 1777430473 | 8.89° C | 100% | 1018.9 hPa | - | - | - | - |
| 1777429573 | 8.89° C | 100% | 1018.9 hPa | - | - | - | - |
| 1777428673 | 8.89° C | 100% | 1018.9 hPa | - | - | - | - |
| 1777427776 | 9.44° C | 100% | 1018.8 hPa | - | - | - | - |
| 1777426873 | 9.44° C | 100% | 1018.7 hPa | - | - | - | - |
| 1777425972 | 10° C | 100% | 1018.8 hPa | - | - | - | - |
| 1777425072 | 10° C | 100% | 1018.7 hPa | - | - | - | - |
| 1777424172 | 10° C | 100% | 1018.8 hPa | - | - | - | - |
| 1777423272 | 10° C | 100% | 1018.7 hPa | - | - | - | - |
| 1777422372 | 10.56° C | 100% | 1018.6 hPa | - | - | - | - |
| 1777421472 | 10.56° C | 100% | 1018.7 hPa | - | - | - | - |
| 1777420572 | 10.56° C | 100% | 1018.7 hPa | - | - | - | - |
| 1777419672 | 10.56° C | 100% | 1018.7 hPa | - | - | - | - |
* Rain since midnight (hover to see other rain measurements)
** Current wind speed in m/s (hover to see current wind gust speed)